STARLINK-32952, 63146

Orbit data source: Space-Track

STARLINK-32952, 63146 is a payload satellite owned by SpaceX/Seattle (US) in LEO that was launched on Mon, 03 Mar 2025 UTC via an FALCON 9 launch vehicle from the Air Force Eastern Test Range (AFETR). Payload-class satellites include a variety of spacecraft equipped with specific instruments for various scientific and technological missions. These include communications satellites like Starlink; space stations such as the ISS; scientific satellites like the Hubble; Earth observation satellites from companies like Planet Labs, Umbra, and HawkEye 360; GPS; miniature CubeSats for education and research; and military/defense satellites.

Loading next visibility...
Identifier
63146, 2025-043Q
Orbit
LEO
Last TLE update
1 day ago
Origin
Manufacturer
SpaceX/Seattle
Mission
Operational Commercial Communications
Bus & Motor
STARLINK V2M, Unknown motor
Mass
730 kg wet, ~700 kg dry
Launch date (UTC)
2025-03-03 (4 months ago)
Launch vehicle
FALCON 9
Launch site
Air Force Eastern Test Range (AFETR)
Object type
Payload
Rocket body
Debris
Shape & HBR
Box + 2 Pan, 29 m
Radar Cross Section
33.884 m², Large (>1 m²)

Expand to show TLE details & history

TLE from 1 day ago
0 STARLINK-32952
1 63146U 25043Q   25181.55981696  .00016651  00000-0  61287-3 0  9996
2 63146  43.0021   6.9226 0001499 269.1217  90.9463 15.27600365 19352
Epoch: 2025-06-30T13:26Z
TLE epoch observation values (Epoch: 2025-06-30T13:26:08.185Z)
Latitude
-0.00001°
Longitude
-113.47939°
Altitude
482.781 km
Speed
7.626 km/s
True Right ascension
00h 27m 41s
True Declination
0° 00' 00"
Sunlit
Object was in daylight at epoch
Visualization orbit readout
Latitude
30.22185°
Longitude
22.44041°
Altitude
484.317 km
Speed
7.627 km/s
Apparent Right ascension
11h 10m 17s
Apparent Declination
-3° 46' 54"
Sunlit
Object is in daylight
Visualization observer readout
Local Sidereal Time
01:12:04
Azimuth
45.244° ENE
Elevation
-44.594°
Doppler factor
1
Orbital elements
Apogee altitude
485.962 km
Perigee altitude
483.904 km
Semi-major axis
6,863.07 km
Eccentricity
0.00015
Inclination
43.0021°
RAAN
6.9226°
Arg. of periapsis
269.1217°
True anomaly
Unknown
Mean anomaly
90.9463°
Eccentric anomaly
Unknown
Mean motion
3.81738 °/min
Orbital period
94.31 mins
BSTAR
0.00061287
Loading maneuver chart data...
Loading SW <> Apogee altitude chart data...
Loading historical data...
Loading historical data...
Loading historical data...
Loading historical data...
Loading historical data...
Loading historical data...
Loading historical data...

STARLINK-32952 Visibility forecast

Observer location: undefined°, undefined°

Span
Click to sort rows by Start time (UTC) header in descending order
Start Az.
Max El. time (UTC)
Max El. Az.
Max El.
End time (UTC)
End Az.
4 mins2025-07-01 14:44:07.315Z177.92° S2025-07-01 14:46:07.315Z138.662° SSE17.721°2025-07-01 14:48:07.315Z103.233° ESE
6 mins2025-07-01 16:22:07.315Z243.802° WSW2025-07-01 16:24:07.315Z216.508° SW43.325°2025-07-01 16:28:07.315Z73.101° E
6 mins2025-07-01 18:01:07.315Z285.52° WNW2025-07-01 18:03:07.315Z330.345° NNW37.012°2025-07-01 18:07:07.315Z74.443° E
6 mins2025-07-01 19:40:07.315Z291.408° WNW2025-07-01 19:43:07.315Z65.255° ENE42.217°2025-07-01 19:46:07.315Z99.987° ESE
4 mins2025-07-01 21:20:07.315Z251.021° W2025-07-01 21:21:07.315Z224.179° SW27.147°2025-07-01 21:24:07.315Z153.4° SSE
|